Tracking 25949 objects as of 8-Aug-2022
HD Live streaming from Space Station
objects crossing your sky now

OPS 0203 (DMSP 5A F2)

Track OPS 0203 (DMSP 5A F2) now!
10-day predictions
OPS 0203 (DMSP 5A F2) is classified as:


NORAD ID: 4512
Int'l Code: 1970-070A
Perigee: 737.4 km
Apogee: 827.9 km
Inclination: 98.9 °
Period: 100.4 minutes
Semi major axis: 7153 km
RCS: 0.9702 m2 (medium)
Launch date: September 3, 1970
Source: United States (US)
Launch site: AIR FORCE WESTERN TEST RANGE (AFWTR)
aabbcc
Your satellite tracking list
Your tracking list is empty




NASA's NSSDC Master Catalog

Two Line Element Set (TLE):
1 04512U 70070A   22219.69551226  .00000079  00000-0  43416-4 0  9996
2 04512  98.8637 111.7659 0063226 275.7115  83.6863 14.34861849709381
Source of the keplerian elements: AFSPC